Weather History for Chillicothe, MO

Change the Weather History Date:

Wednesday, December 11, 2013

  Actual Average (KIRK) Record (KIRK)
Temperature  
Mean Temperature 16 °F 30 °F  
Max Temperature 28 °F 38 °F 70 °F (1949)
Min Temperature 3 °F 21 °F -10 °F (1972)
Degree Days  
Heating Degree Days 50 35  
Month to date heating degree days 370  
Since 1 July heating degree days 1591  
Cooling Degree Days 0 0  
Month to date cooling degree days 0  
Year to date cooling degree days 939  
Moisture  
Dew Point 6 °F    
Average Humidity 64    
Maximum Humidity 80    
Minimum Humidity 43    
Precipitation  
Precipitation 0.00 in 0.07 in 1.15 in (1949)
Month to date precipitation 0.72  
Year to date precipitation 38.28  
Sea Level Pressure  
Sea Level Pressure 30.59 in    
Wind  
Wind Speed 6 mph (NW)    
Max Wind Speed 10 mph    
Max Gust Speed 22 mph    
T = Trace of Precipitation, MM = Missing Value Source: NWS Daily Summary

Daily Weather History Graph

Daily Weather History Graph

Search for Another Location

Airport:

Trip Planner

Search our weather history database for the weather conditions in past years. The results will help you decide how hot, cold, wet, or windy it might be!

Date:

Astronomy

Dec. 11, 2013 Rise Set
Actual Time 7:25 AM CST 4:49 PM CST
Civil Twilight 6:55 AM CST 5:20 PM CST
Nautical Twilight 6:21 AM CST 5:53 PM CST
Astronomical Twilight 5:48 AM CST 6:26 PM CST
Moon 1:23 PM CST (12/11) 1:48 AM CST (12/11)
Length of Visible Light 10h 24m
Length of Day
9h 23m
Waxing Gibbous, 72% of the Moon is Illuminated
Dec 11
Waxing Gibbous
Dec 17
Full
Dec 25
Last Quarter
Jan 1
New
Jan 7
First Quarter

Hourly Weather History & Observations

Time (CST) Temp. Windchill Dew Point Humidity Pressure Visibility Wind Dir Wind Speed Gust Speed Precip Events Conditions
12:52 AM 26.1 °F 19.4 °F 17.1 °F 69% 30.29 in - South 5.8 mph - N/A   Unknown
1:52 AM 25.0 °F 17.1 °F 17.1 °F 72% 30.30 in - SSW 6.9 mph - N/A   Unknown
2:52 AM 24.1 °F 19.7 °F 15.1 °F 69% 30.35 in - Variable 3.5 mph - N/A   Unknown
3:52 AM 25.0 °F 19.3 °F 17.1 °F 72% 30.34 in - WNW 4.6 mph - N/A   Unknown
4:52 AM 28.0 °F 20.0 °F 19.0 °F 69% 30.38 in - NNW 8.1 mph - N/A   Unknown
5:52 AM 28.0 °F 18.6 °F 19.9 °F 72% 30.43 in - North 10.4 mph 21.9 mph N/A   Unknown
6:52 AM 21.9 °F 11.0 °F 12.9 °F 68% 30.51 in - NNW 10.4 mph 19.6 mph N/A   Unknown
7:52 AM 19.9 °F 8.6 °F 12.0 °F 71% 30.57 in - NNW 10.4 mph 19.6 mph N/A   Unknown
8:52 AM 18.0 °F 6.1 °F 9.0 °F 68% 30.61 in - North 10.4 mph 19.6 mph N/A   Unknown
9:52 AM 19.0 °F 8.2 °F 9.0 °F 65% 30.66 in - NNW 9.2 mph 19.6 mph N/A   Unknown
10:52 AM 19.0 °F 8.2 °F 7.0 °F 59% 30.68 in - North 9.2 mph - N/A   Unknown
11:52 AM 18.0 °F 6.9 °F 3.9 °F 54% 30.69 in - North 9.2 mph - N/A   Unknown
12:52 PM 19.0 °F 7.5 °F 1.0 °F 46% 30.68 in - North 10.4 mph - N/A   Unknown
1:52 PM 19.0 °F 11.1 °F 1.9 °F 47% 30.68 in - Variable 5.8 mph - N/A   Unknown
2:52 PM 18.0 °F 6.9 °F -0.9 °F 44% 30.69 in - WNW 9.2 mph - N/A   Unknown
3:52 PM 17.1 °F 6.6 °F -2.0 °F 43% 30.68 in - NW 8.1 mph - N/A   Unknown
4:52 PM 14.0 °F 8.2 °F -2.0 °F 49% 30.70 in - NW 3.5 mph - N/A   Unknown
5:52 PM 12.0 °F - -2.0 °F 53% 30.71 in - Calm Calm - N/A   Unknown
6:52 PM 8.1 °F - -2.0 °F 64% 30.73 in - Calm Calm - N/A   Unknown
7:52 PM 7.0 °F - -2.0 °F 67% 30.73 in - Calm Calm - N/A   Unknown
8:52 PM 5.0 °F - -0.9 °F 76% 30.73 in - Calm Calm - N/A   Unknown
9:52 PM 3.9 °F - -0.9 °F 80% 30.72 in - Calm Calm - N/A   Unknown
10:52 PM 3.0 °F - -2.0 °F 80% 30.71 in - Calm Calm - N/A   Unknown
11:52 PM 3.0 °F -4.4 °F -2.0 °F 80% 30.69 in - South 3.5 mph - N/A   Unknown